MFX609 UZTT-OOMS

Flight info

Callsign MFX609
Flight time 3h 5m
Altitude 34000
Route KUFIM2A KUFIM L143 UVASU T388 RAVEG P178 MANAT/N0480F340 B376 LBA A847 NAZAR A647 MSD/N0481F350 B441 BJD/N0482F360 B441 NABOX/N0489F350 R654 NAGES M719 MESPO L430 ASLOM R462 VUSET
Aircraft B763/H-SDE3FGHIM3RWXY/LB1

Departure

Time 2026-05-06 01:19
Airport Tashkent International Airport (UZTT)

Arrival

Time 2026-05-06 04:24
Airport Muscat International Airport (OOMS)
Time Latitude Longitude Altitude Speed Heading
2026-05-06 01:07 41.26217 69.28054 1427 ft 0 kts 172°
2026-05-06 01:15 41.26217 69.28055 1427 ft 1 kts 172°
2026-05-06 01:15 41.26184 69.28056 1427 ft 9 kts 193°
2026-05-06 01:16 41.26146 69.27946 1427 ft 18 kts 259°
2026-05-06 01:16 41.26120 69.27730 1427 ft 28 kts 262°
2026-05-06 01:16 41.26088 69.27445 1427 ft 32 kts 262°
2026-05-06 01:16 41.26038 69.27197 1427 ft 27 kts 244°
2026-05-06 01:17 41.25959 69.26969 1427 ft 27 kts 246°
2026-05-06 01:17 41.25874 69.26738 1427 ft 27 kts 243°
2026-05-06 01:17 41.25795 69.26519 1427 ft 18 kts 245°
2026-05-06 01:17 41.25733 69.26411 1427 ft 14 kts 213°
2026-05-06 01:18 41.25667 69.26402 1427 ft 7 kts 131°
2026-05-06 01:18 41.25670 69.26520 1427 ft 28 kts 82°
2026-05-06 01:18 41.25732 69.27082 1427 ft 93 kts 81°
2026-05-06 01:18 41.25855 69.28183 1428 ft 148 kts 81°
2026-05-06 01:19 41.25993 69.29727 1642 ft 182 kts 89°
2026-05-06 01:19 41.25467 69.31246 2180 ft 204 kts 144°
2026-05-06 01:19 41.24035 69.31385 2771 ft 225 kts 208°
2026-05-06 01:19 41.22946 69.29897 3444 ft 242 kts 236°
2026-05-06 01:20 41.22139 69.27801 3980 ft 267 kts 245°
2026-05-06 01:20 41.21400 69.25527 5106 ft 270 kts 245°
2026-05-06 01:20 41.20634 69.23252 6084 ft 279 kts 245°
2026-05-06 01:20 41.19831 69.20903 7208 ft 282 kts 245°
2026-05-06 01:21 41.19038 69.18600 8372 ft 281 kts 245°
2026-05-06 01:21 41.18221 69.16241 9405 ft 286 kts 245°
2026-05-06 01:21 41.17393 69.13857 10472 ft 288 kts 245°
2026-05-06 01:21 41.16537 69.11404 11123 ft 306 kts 245°
2026-05-06 01:22 41.15609 69.08739 11719 ft 326 kts 245°
2026-05-06 01:22 41.14641 69.05966 12372 ft 345 kts 246°
2026-05-06 01:22 41.13595 69.02975 12990 ft 365 kts 246°
2026-05-06 01:22 41.12525 68.99918 13862 ft 375 kts 246°
2026-05-06 01:23 41.11424 68.96782 14830 ft 379 kts 247°
2026-05-06 01:23 41.10305 68.93591 15742 ft 385 kts 247°
2026-05-06 01:23 41.09182 68.90397 16681 ft 390 kts 247°
2026-05-06 01:23 41.08033 68.87129 17633 ft 395 kts 247°
2026-05-06 01:24 41.06871 68.83830 18555 ft 399 kts 248°
2026-05-06 01:24 41.05706 68.80525 19371 ft 404 kts 248°
2026-05-06 01:24 41.04510 68.77135 20185 ft 410 kts 248°
2026-05-06 01:24 41.03302 68.73717 21042 ft 413 kts 249°
2026-05-06 01:25 41.02083 68.70267 21804 ft 419 kts 249°
2026-05-06 01:25 41.00849 68.66784 22594 ft 423 kts 249°
2026-05-06 01:25 40.99595 68.63251 23402 ft 426 kts 249°
2026-05-06 01:25 40.98321 68.59656 24111 ft 432 kts 249°
2026-05-06 01:26 40.97052 68.56089 24850 ft 436 kts 249°
2026-05-06 01:26 40.95753 68.52438 25571 ft 440 kts 249°
2026-05-06 01:26 40.94440 68.48753 26189 ft 446 kts 249°
2026-05-06 01:26 40.93112 68.45035 26846 ft 450 kts 249°
2026-05-06 01:27 40.91788 68.41328 27518 ft 453 kts 249°
2026-05-06 01:27 40.90434 68.37543 28072 ft 459 kts 249°
2026-05-06 01:27 40.89069 68.33737 28696 ft 462 kts 249°
2026-05-06 01:27 40.87663 68.29818 29296 ft 466 kts 249°
2026-05-06 01:28 40.86288 68.25993 29867 ft 470 kts 249°
2026-05-06 01:28 40.84881 68.22081 30490 ft 472 kts 249°
2026-05-06 01:28 40.83477 68.18188 31346 ft 468 kts 249°
2026-05-06 01:28 40.82102 68.14381 32244 ft 462 kts 249°
2026-05-06 01:29 40.80728 68.10580 33146 ft 456 kts 250°
2026-05-06 01:29 40.79374 68.06835 33818 ft 454 kts 250°
2026-05-06 01:29 40.78017 68.03085 34021 ft 453 kts 250°
2026-05-06 01:29 40.76659 67.99335 34007 ft 450 kts 250°
2026-05-06 01:30 40.73981 67.91950 34013 ft 450 kts 250°
2026-05-06 01:30 40.71277 67.84526 34006 ft 449 kts 250°
2026-05-06 01:31 40.68588 67.77158 34003 ft 448 kts 250°
2026-05-06 01:31 40.65885 67.69775 34005 ft 449 kts 250°
2026-05-06 01:32 40.63168 67.62372 34004 ft 448 kts 250°
2026-05-06 01:32 40.60456 67.54999 34008 ft 451 kts 250°
2026-05-06 01:33 40.57735 67.47624 34005 ft 449 kts 250°
2026-05-06 01:33 40.55001 67.40234 34008 ft 448 kts 250°
2026-05-06 01:34 40.52269 67.32864 34011 ft 449 kts 249°
2026-05-06 01:34 40.49537 67.25513 34014 ft 450 kts 249°
2026-05-06 01:35 40.46796 67.18160 34032 ft 447 kts 249°
2026-05-06 01:35 40.43861 67.10958 34061 ft 453 kts 244°
2026-05-06 01:36 40.40633 67.03901 34070 ft 452 kts 244°
2026-05-06 01:36 40.37379 66.96832 34089 ft 453 kts 244°
2026-05-06 01:37 40.34114 66.89771 34109 ft 454 kts 244°
2026-05-06 01:37 40.30854 66.82745 34115 ft 451 kts 244°
2026-05-06 01:38 40.27598 66.75741 34108 ft 452 kts 244°
2026-05-06 01:38 40.24336 66.68744 34113 ft 451 kts 244°
2026-05-06 01:39 40.21060 66.61731 34108 ft 452 kts 244°
2026-05-06 01:39 40.17799 66.54770 34105 ft 450 kts 244°
2026-05-06 01:40 40.14545 66.47832 34094 ft 450 kts 244°
2026-05-06 01:40 40.11259 66.40850 34069 ft 448 kts 244°
2026-05-06 01:41 40.08012 66.33958 34071 ft 451 kts 243°
2026-05-06 01:41 40.04710 66.26968 34040 ft 451 kts 243°
2026-05-06 01:42 40.01422 66.20027 34021 ft 451 kts 243°
2026-05-06 01:42 39.98131 66.13094 34012 ft 449 kts 243°
2026-05-06 01:43 39.94849 66.06192 34017 ft 448 kts 243°
2026-05-06 01:43 39.91570 65.99314 34021 ft 447 kts 243°
2026-05-06 01:44 39.88281 65.92429 34013 ft 446 kts 243°
2026-05-06 01:44 39.85006 65.85586 34022 ft 446 kts 243°
2026-05-06 01:45 39.81721 65.78739 34027 ft 448 kts 243°
2026-05-06 01:45 39.78425 65.71887 34033 ft 447 kts 243°
2026-05-06 01:46 39.75180 65.65015 34023 ft 447 kts 245°
2026-05-06 01:46 39.72134 65.57980 34006 ft 446 kts 247°
2026-05-06 01:47 39.69348 65.50811 33993 ft 444 kts 248°
2026-05-06 01:47 39.66555 65.43688 33987 ft 443 kts 248°
2026-05-06 01:48 39.63763 65.36611 33980 ft 442 kts 248°
2026-05-06 01:48 39.60943 65.29490 33984 ft 442 kts 247°
2026-05-06 01:49 39.58132 65.22407 33979 ft 443 kts 247°
2026-05-06 01:49 39.55311 65.15316 33979 ft 444 kts 246°
2026-05-06 01:50 39.52483 65.08228 33976 ft 443 kts 246°
2026-05-06 01:50 39.49674 65.01204 33973 ft 440 kts 246°
2026-05-06 01:51 39.47130 64.94855 33979 ft 443 kts 246°
2026-05-06 01:51 39.44302 64.87817 33987 ft 444 kts 246°
2026-05-06 01:52 39.41465 64.80769 33968 ft 443 kts 246°
2026-05-06 01:52 39.38621 64.73722 33980 ft 443 kts 246°
2026-05-06 01:53 39.35773 64.66678 33968 ft 444 kts 246°
2026-05-06 01:53 39.32916 64.59630 33965 ft 443 kts 246°
2026-05-06 01:54 39.30058 64.52599 33961 ft 440 kts 246°
2026-05-06 01:54 39.27205 64.45589 33963 ft 444 kts 246°
2026-05-06 01:55 39.24343 64.38583 33975 ft 442 kts 246°
2026-05-06 01:55 39.21480 64.31581 33956 ft 443 kts 245°
2026-05-06 01:56 39.18608 64.24577 33959 ft 445 kts 245°
2026-05-06 01:56 39.15700 64.17505 33954 ft 444 kts 245°
2026-05-06 01:57 39.12825 64.10526 33936 ft 442 kts 245°
2026-05-06 01:57 39.09932 64.03516 33941 ft 447 kts 245°
2026-05-06 01:58 39.07024 63.96489 33930 ft 446 kts 245°
2026-05-06 01:58 39.04125 63.89501 33933 ft 443 kts 245°
2026-05-06 01:59 39.01229 63.82534 33912 ft 442 kts 244°
2026-05-06 01:59 38.98336 63.75589 33912 ft 442 kts 244°
2026-05-06 02:00 38.95410 63.68581 33919 ft 445 kts 244°
2026-05-06 02:00 38.92495 63.61634 33913 ft 441 kts 243°
2026-05-06 02:01 38.88726 63.55332 33916 ft 447 kts 232°
2026-05-06 02:01 38.84619 63.49374 33914 ft 448 kts 232°
2026-05-06 02:02 38.80469 63.43429 33913 ft 447 kts 231°
2026-05-06 02:02 38.76330 63.37537 33905 ft 444 kts 231°
2026-05-06 02:03 38.72198 63.31672 33922 ft 447 kts 231°
2026-05-06 02:03 38.68020 63.25759 33931 ft 449 kts 230°
2026-05-06 02:04 38.63858 63.19881 33917 ft 442 kts 230°
2026-05-06 02:04 38.59756 63.14098 33920 ft 442 kts 230°
2026-05-06 02:05 38.55614 63.08269 33946 ft 444 kts 231°
2026-05-06 02:05 38.51461 63.02437 33930 ft 447 kts 230°
2026-05-06 02:06 38.47281 62.96578 33938 ft 445 kts 230°
2026-05-06 02:06 38.43132 62.90771 33933 ft 444 kts 230°
2026-05-06 02:07 38.38976 62.84967 33922 ft 445 kts 230°
2026-05-06 02:07 38.34806 62.79154 33905 ft 444 kts 230°
2026-05-06 02:08 38.30671 62.73399 33926 ft 444 kts 230°
2026-05-06 02:08 38.26491 62.67594 33899 ft 443 kts 230°
2026-05-06 02:09 38.22321 62.61813 33925 ft 445 kts 230°
2026-05-06 02:09 38.18145 62.56035 33904 ft 444 kts 230°
2026-05-06 02:10 38.13980 62.50280 33878 ft 443 kts 230°
2026-05-06 02:10 38.09557 62.44819 33903 ft 447 kts 226°
2026-05-06 02:11 38.05036 62.39449 33888 ft 446 kts 226°
2026-05-06 02:11 38.00523 62.34113 33891 ft 445 kts 225°
2026-05-06 02:12 37.95968 62.28742 33908 ft 447 kts 225°
2026-05-06 02:12 37.91430 62.23404 33891 ft 445 kts 225°
2026-05-06 02:13 37.86889 62.18072 33885 ft 445 kts 225°
2026-05-06 02:13 37.82362 62.12765 33908 ft 445 kts 225°
2026-05-06 02:14 37.77805 62.07434 33909 ft 446 kts 225°
2026-05-06 02:14 37.73252 62.02117 33889 ft 446 kts 226°
2026-05-06 02:15 37.68704 61.96814 33880 ft 446 kts 226°
2026-05-06 02:15 37.64146 61.91508 33886 ft 447 kts 225°
2026-05-06 02:16 37.60069 61.85690 33891 ft 441 kts 234°
2026-05-06 02:16 37.56310 61.79594 33881 ft 442 kts 234°
2026-05-06 02:17 37.52557 61.73489 33895 ft 442 kts 234°
2026-05-06 02:17 37.48796 61.67373 33878 ft 440 kts 235°
2026-05-06 02:18 37.45056 61.61293 33886 ft 441 kts 234°
2026-05-06 02:18 37.41293 61.55186 33884 ft 441 kts 234°
2026-05-06 02:19 37.37553 61.49128 33881 ft 438 kts 234°
2026-05-06 02:19 37.33821 61.43090 33875 ft 440 kts 234°
2026-05-06 02:20 37.28167 61.33968 33872 ft 440 kts 234°
2026-05-06 02:21 37.24414 61.27928 33879 ft 441 kts 234°
2026-05-06 02:21 37.20635 61.21851 33867 ft 439 kts 234°
2026-05-06 02:22 37.16937 61.15788 33866 ft 439 kts 234°
2026-05-06 02:22 37.13228 61.09718 33863 ft 439 kts 234°
2026-05-06 02:23 37.09531 61.03680 33858 ft 437 kts 234°
2026-05-06 02:23 37.05820 60.97630 33878 ft 439 kts 234°
2026-05-06 02:24 37.02101 60.91578 33861 ft 438 kts 234°
2026-05-06 02:24 36.98404 60.85573 33851 ft 439 kts 234°
2026-05-06 02:25 36.94708 60.79511 33863 ft 439 kts 235°
2026-05-06 02:25 36.91009 60.73436 33885 ft 438 kts 234°
2026-05-06 02:26 36.87307 60.67363 33885 ft 439 kts 234°
2026-05-06 02:26 36.83598 60.61296 33897 ft 442 kts 235°
2026-05-06 02:27 36.79869 60.55202 33902 ft 444 kts 234°
2026-05-06 02:27 36.76102 60.49061 33899 ft 444 kts 235°
2026-05-06 02:28 36.72385 60.43011 33938 ft 441 kts 235°
2026-05-06 02:28 36.68624 60.36898 33967 ft 443 kts 234°
2026-05-06 02:29 36.64886 60.30859 34006 ft 443 kts 233°
2026-05-06 02:29 36.61072 60.24803 34016 ft 443 kts 233°
2026-05-06 02:30 36.57289 60.18803 34046 ft 441 kts 233°
2026-05-06 02:30 36.53499 60.12804 34086 ft 441 kts 234°
2026-05-06 02:31 36.49714 60.06821 34133 ft 440 kts 234°
2026-05-06 02:31 36.45947 60.00878 34171 ft 440 kts 234°
2026-05-06 02:32 36.42067 59.95038 34122 ft 440 kts 226°
2026-05-06 02:32 36.37010 59.90662 34078 ft 450 kts 208°
2026-05-06 02:33 36.30920 59.88554 34099 ft 460 kts 189°
2026-05-06 02:33 36.28801 59.88412 34112 ft 463 kts 184°
2026-05-06 02:33 36.21322 59.87734 34054 ft 459 kts 195°
2026-05-06 02:34 36.18230 59.86939 34046 ft 457 kts 197°
2026-05-06 02:34 36.12120 59.84980 34059 ft 453 kts 200°
2026-05-06 02:35 36.06072 59.82789 34088 ft 453 kts 201°
2026-05-06 02:35 36.00018 59.80489 34102 ft 454 kts 201°
2026-05-06 02:36 35.93993 59.78160 34093 ft 453 kts 201°
2026-05-06 02:36 35.87987 59.75824 34157 ft 453 kts 202°
2026-05-06 02:37 35.81962 59.73475 34192 ft 456 kts 202°
2026-05-06 02:37 35.75900 59.71114 34231 ft 453 kts 202°
2026-05-06 02:38 35.69871 59.68767 34265 ft 455 kts 202°
2026-05-06 02:38 35.63828 59.66419 34316 ft 457 kts 202°
2026-05-06 02:39 35.57778 59.64074 34326 ft 455 kts 202°
2026-05-06 02:39 35.51760 59.61742 34348 ft 456 kts 202°
2026-05-06 02:40 35.45713 59.59404 34335 ft 455 kts 202°
2026-05-06 02:40 35.39690 59.57080 34335 ft 449 kts 202°
2026-05-06 02:41 35.33746 59.54787 34274 ft 449 kts 202°
2026-05-06 02:41 35.27769 59.52483 34245 ft 454 kts 202°
2026-05-06 02:42 35.21619 59.50719 34210 ft 456 kts 192°
2026-05-06 02:42 35.15272 59.49783 34235 ft 462 kts 192°
2026-05-06 02:43 35.08916 59.48873 34181 ft 461 kts 192°
2026-05-06 02:43 35.02534 59.47973 34171 ft 462 kts 192°
2026-05-06 02:44 34.96127 59.47076 34157 ft 460 kts 192°
2026-05-06 02:44 34.89790 59.46192 34151 ft 461 kts 192°
2026-05-06 02:45 34.83416 59.45306 34135 ft 461 kts 192°
2026-05-06 02:45 34.77039 59.44418 34160 ft 464 kts 192°
2026-05-06 02:46 34.70645 59.43533 34121 ft 461 kts 192°
2026-05-06 02:46 34.64220 59.42642 34113 ft 463 kts 192°
2026-05-06 02:47 34.57847 59.41760 34123 ft 464 kts 192°
2026-05-06 02:47 34.51440 59.40877 34118 ft 463 kts 192°
2026-05-06 02:48 34.45021 59.39993 34117 ft 461 kts 192°
2026-05-06 02:48 34.38627 59.39111 34122 ft 463 kts 192°
2026-05-06 02:49 34.32230 59.38233 34101 ft 463 kts 193°
2026-05-06 02:49 34.25792 59.37349 34139 ft 464 kts 193°
2026-05-06 02:50 34.19358 59.36468 34091 ft 463 kts 192°
2026-05-06 02:50 34.12971 59.35595 34115 ft 463 kts 193°
2026-05-06 02:51 34.06527 59.34713 34190 ft 465 kts 192°
2026-05-06 02:51 34.00088 59.33836 34246 ft 466 kts 192°
2026-05-06 02:52 33.93679 59.32966 34273 ft 463 kts 193°
2026-05-06 02:52 33.87241 59.32088 34254 ft 465 kts 193°
2026-05-06 02:53 33.80737 59.31205 34250 ft 466 kts 193°
2026-05-06 02:53 33.74283 59.30333 34263 ft 466 kts 193°
2026-05-06 02:54 33.67855 59.29467 34276 ft 465 kts 193°
2026-05-06 02:54 33.61405 59.28600 34271 ft 467 kts 193°
2026-05-06 02:55 33.54931 59.27731 34283 ft 466 kts 193°
2026-05-06 02:55 33.48474 59.26866 34326 ft 465 kts 193°
2026-05-06 02:56 33.42009 59.25998 34340 ft 469 kts 193°
2026-05-06 02:56 33.35519 59.25134 34329 ft 465 kts 193°
2026-05-06 02:57 33.29069 59.24269 34363 ft 467 kts 193°
2026-05-06 02:57 33.22596 59.23401 34315 ft 469 kts 193°
2026-05-06 02:58 33.16136 59.22535 34242 ft 470 kts 193°
2026-05-06 02:58 33.09618 59.21665 34158 ft 467 kts 193°
2026-05-06 02:59 33.03173 59.20805 34137 ft 467 kts 193°
2026-05-06 02:59 32.96692 59.19925 34141 ft 467 kts 194°
2026-05-06 03:00 32.90261 59.18816 34137 ft 467 kts 195°
2026-05-06 03:00 32.83796 59.17706 34128 ft 466 kts 195°
2026-05-06 03:01 32.77371 59.16600 34140 ft 468 kts 195°
2026-05-06 03:01 32.70928 59.15499 34213 ft 463 kts 195°
2026-05-06 03:01 32.67780 59.14961 34316 ft 463 kts 195°
2026-05-06 03:02 32.64556 59.14406 34251 ft 469 kts 196°
2026-05-06 03:02 32.58117 59.13310 34299 ft 463 kts 196°
2026-05-06 03:03 32.51706 59.12214 34317 ft 466 kts 195°
2026-05-06 03:03 32.45289 59.11122 34283 ft 465 kts 196°
2026-05-06 03:04 32.38900 59.10037 34260 ft 463 kts 196°
2026-05-06 03:04 32.32492 59.08946 34261 ft 464 kts 196°
2026-05-06 03:05 32.26098 59.07863 34227 ft 465 kts 197°
2026-05-06 03:05 32.19671 59.06774 34242 ft 466 kts 197°
2026-05-06 03:06 32.13261 59.05690 34231 ft 467 kts 197°
2026-05-06 03:06 32.06853 59.04608 34234 ft 465 kts 196°
2026-05-06 03:07 32.00451 59.03528 34227 ft 466 kts 197°
2026-05-06 03:07 31.94008 59.02445 34217 ft 463 kts 197°
2026-05-06 03:08 31.87585 59.01363 34213 ft 466 kts 197°
2026-05-06 03:08 31.81147 59.00281 34225 ft 468 kts 197°
2026-05-06 03:09 31.74699 58.99201 34240 ft 467 kts 197°
2026-05-06 03:09 31.68275 58.98126 34224 ft 465 kts 197°
2026-05-06 03:10 31.61863 58.97053 34199 ft 467 kts 197°
2026-05-06 03:10 31.55454 58.95985 34139 ft 468 kts 197°
2026-05-06 03:11 31.48949 58.94899 34095 ft 470 kts 197°
2026-05-06 03:11 31.42503 58.93829 34078 ft 467 kts 197°
2026-05-06 03:12 31.36082 58.92761 34086 ft 467 kts 197°
2026-05-06 03:12 31.29656 58.91696 34063 ft 468 kts 197°
2026-05-06 03:13 31.23218 58.90630 34037 ft 466 kts 197°
2026-05-06 03:13 31.16779 58.89564 34040 ft 467 kts 197°
2026-05-06 03:14 31.10350 58.88503 34018 ft 465 kts 197°
2026-05-06 03:14 31.03924 58.87440 34045 ft 469 kts 197°
2026-05-06 03:15 30.97459 58.86377 34018 ft 467 kts 198°
2026-05-06 03:15 30.91032 58.85319 34004 ft 466 kts 197°
2026-05-06 03:16 30.84528 58.84250 33990 ft 467 kts 198°
2026-05-06 03:16 30.78109 58.83198 33967 ft 466 kts 198°
2026-05-06 03:17 30.71690 58.82144 33948 ft 468 kts 198°
2026-05-06 03:17 30.65231 58.81086 33937 ft 468 kts 198°
2026-05-06 03:18 30.58800 58.80033 33930 ft 468 kts 198°
2026-05-06 03:18 30.52330 58.78976 33907 ft 467 kts 198°
2026-05-06 03:19 30.45888 58.77924 33896 ft 467 kts 198°
2026-05-06 03:19 30.39479 58.76881 33888 ft 466 kts 198°
2026-05-06 03:20 30.29823 58.75308 33877 ft 466 kts 197°
2026-05-06 03:20 30.23408 58.74266 33871 ft 466 kts 197°
2026-05-06 03:21 30.16895 58.73206 33866 ft 474 kts 197°
2026-05-06 03:21 30.10374 58.72154 33864 ft 473 kts 197°
2026-05-06 03:22 30.03872 58.71102 33864 ft 472 kts 197°
2026-05-06 03:22 29.97318 58.70043 33875 ft 473 kts 197°
2026-05-06 03:23 29.90812 58.68998 33866 ft 470 kts 197°
2026-05-06 03:23 29.84307 58.67960 33868 ft 472 kts 197°
2026-05-06 03:24 29.77781 58.66921 33885 ft 473 kts 197°
2026-05-06 03:24 29.71269 58.65886 33879 ft 473 kts 197°
2026-05-06 03:25 29.64773 58.64856 33891 ft 472 kts 197°
2026-05-06 03:25 29.58258 58.63822 33944 ft 470 kts 197°
2026-05-06 03:26 29.51780 58.62795 33923 ft 473 kts 197°
2026-05-06 03:26 29.45274 58.61767 33978 ft 470 kts 197°
2026-05-06 03:27 29.38765 58.60739 33979 ft 470 kts 197°
2026-05-06 03:27 29.32270 58.59712 34006 ft 473 kts 197°
2026-05-06 03:28 29.25787 58.58693 34044 ft 471 kts 197°
2026-05-06 03:28 29.19281 58.57669 34054 ft 469 kts 197°
2026-05-06 03:29 29.12811 58.56652 34101 ft 469 kts 197°
2026-05-06 03:29 29.06344 58.55636 34098 ft 470 kts 197°
2026-05-06 03:30 28.99886 58.54625 34119 ft 468 kts 197°
2026-05-06 03:30 28.93426 58.53612 34123 ft 469 kts 197°
2026-05-06 03:31 28.86950 58.52600 34128 ft 469 kts 197°
2026-05-06 03:31 28.80463 58.51587 34141 ft 469 kts 196°
2026-05-06 03:32 28.74014 58.50581 34158 ft 469 kts 197°
2026-05-06 03:32 28.67565 58.49577 34192 ft 468 kts 196°
2026-05-06 03:33 28.61080 58.48568 34254 ft 467 kts 196°
2026-05-06 03:33 28.54649 58.47568 34308 ft 467 kts 196°
2026-05-06 03:34 28.48228 58.46572 34329 ft 466 kts 197°
2026-05-06 03:34 28.41794 58.45573 34254 ft 469 kts 196°
2026-05-06 03:35 28.35314 58.44572 34205 ft 469 kts 195°
2026-05-06 03:35 28.28680 58.44680 34156 ft 489 kts 178°
2026-05-06 03:36 28.22113 58.47139 34100 ft 508 kts 160°
2026-05-06 03:36 28.16044 58.51487 34065 ft 517 kts 153°
2026-05-06 03:37 28.10041 58.55909 34060 ft 515 kts 153°
2026-05-06 03:37 28.04053 58.60261 34045 ft 513 kts 154°
2026-05-06 03:38 27.97994 58.64634 34034 ft 515 kts 153°
2026-05-06 03:38 27.91971 58.68973 34020 ft 514 kts 153°
2026-05-06 03:39 27.85912 58.73327 34013 ft 513 kts 153°
2026-05-06 03:39 27.79886 58.77650 34000 ft 515 kts 153°
2026-05-06 03:40 27.73853 58.81971 34004 ft 515 kts 153°
2026-05-06 03:40 27.67791 58.86309 33999 ft 514 kts 153°
2026-05-06 03:41 27.61780 58.90603 33998 ft 514 kts 153°
2026-05-06 03:41 27.55755 58.94904 33996 ft 512 kts 153°
2026-05-06 03:42 27.49712 58.99209 33989 ft 514 kts 153°
2026-05-06 03:42 27.43649 59.03525 33993 ft 513 kts 153°
2026-05-06 03:43 27.37659 59.07783 33976 ft 511 kts 153°
2026-05-06 03:43 27.31604 59.12081 33980 ft 512 kts 153°
2026-05-06 03:44 27.25574 59.16354 33983 ft 514 kts 153°
2026-05-06 03:44 27.19552 59.20619 33975 ft 512 kts 153°
2026-05-06 03:45 27.13531 59.24876 33975 ft 512 kts 153°
2026-05-06 03:45 27.07515 59.29124 33981 ft 512 kts 153°
2026-05-06 03:46 27.01627 59.33277 33960 ft 510 kts 153°
2026-05-06 03:46 26.95636 59.37498 33978 ft 509 kts 153°
2026-05-06 03:47 26.89661 59.41700 34011 ft 509 kts 153°
2026-05-06 03:47 26.83644 59.45911 34036 ft 509 kts 154°
2026-05-06 03:48 26.77228 59.49004 34079 ft 494 kts 172°
2026-05-06 03:48 26.70551 59.49748 34101 ft 477 kts 190°
2026-05-06 03:49 26.64192 59.48164 34101 ft 460 kts 208°
2026-05-06 03:49 26.58348 59.45367 34098 ft 464 kts 202°
2026-05-06 03:50 26.51831 59.44471 34103 ft 482 kts 184°
2026-05-06 03:50 26.45140 59.44677 34076 ft 479 kts 188°
2026-05-06 03:51 26.38516 59.44259 34034 ft 475 kts 191°
2026-05-06 03:51 26.31903 59.43588 33992 ft 475 kts 192°
2026-05-06 03:52 26.25342 59.42818 33958 ft 475 kts 192°
2026-05-06 03:52 26.18750 59.42003 33938 ft 475 kts 192°
2026-05-06 03:53 26.12216 59.41180 33937 ft 474 kts 192°
2026-05-06 03:53 26.05629 59.40342 33924 ft 475 kts 192°
2026-05-06 03:54 25.99058 59.39506 33928 ft 476 kts 192°
2026-05-06 03:54 25.92455 59.38667 33921 ft 475 kts 192°
2026-05-06 03:55 25.85892 59.37832 33904 ft 474 kts 192°
2026-05-06 03:55 25.79356 59.37001 33898 ft 474 kts 192°
2026-05-06 03:56 25.72791 59.36168 33888 ft 475 kts 192°
2026-05-06 03:56 25.66211 59.35334 33887 ft 475 kts 192°
2026-05-06 03:57 25.59613 59.34498 33876 ft 476 kts 192°
2026-05-06 03:57 25.53051 59.33668 33886 ft 476 kts 192°
2026-05-06 03:58 25.46459 59.32835 33867 ft 475 kts 191°
2026-05-06 03:58 25.39881 59.32005 33875 ft 475 kts 191°
2026-05-06 03:59 25.33351 59.31182 33851 ft 475 kts 191°
2026-05-06 03:59 25.26768 59.30352 33853 ft 476 kts 191°
2026-05-06 04:00 25.20165 59.29520 33462 ft 484 kts 191°
2026-05-06 04:00 25.16786 59.29095 32832 ft 487 kts 191°
2026-05-06 04:00 25.13451 59.28682 32748 ft 470 kts 191°
2026-05-06 04:01 25.10294 59.28290 32712 ft 455 kts 191°
2026-05-06 04:01 25.07152 59.27896 32281 ft 450 kts 191°
2026-05-06 04:01 25.04010 59.27497 31352 ft 457 kts 191°
2026-05-06 04:01 25.00853 59.27099 30573 ft 460 kts 191°
2026-05-06 04:02 24.97653 59.26697 29718 ft 464 kts 191°
2026-05-06 04:02 24.94454 59.26296 28943 ft 465 kts 190°
2026-05-06 04:02 24.91240 59.25895 28396 ft 461 kts 190°
2026-05-06 04:02 24.88049 59.25496 27830 ft 460 kts 190°
2026-05-06 04:03 24.84865 59.25097 27264 ft 459 kts 189°
2026-05-06 04:03 24.81674 59.24699 26701 ft 458 kts 189°
2026-05-06 04:03 24.78546 59.24309 26146 ft 453 kts 189°
2026-05-06 04:03 24.75418 59.23918 25587 ft 448 kts 189°
2026-05-06 04:04 24.72344 59.23535 25055 ft 443 kts 189°
2026-05-06 04:04 24.69280 59.23153 24512 ft 439 kts 188°
2026-05-06 04:04 24.66238 59.22773 23984 ft 437 kts 188°
2026-05-06 04:04 24.63214 59.22396 23454 ft 433 kts 188°
2026-05-06 04:05 24.60224 59.22024 22933 ft 432 kts 188°
2026-05-06 04:05 24.57280 59.21658 22427 ft 427 kts 188°
2026-05-06 04:05 24.54333 59.21291 21925 ft 424 kts 188°
2026-05-06 04:05 24.51386 59.20924 21416 ft 422 kts 187°
2026-05-06 04:06 24.48478 59.20562 20919 ft 420 kts 187°
2026-05-06 04:06 24.45624 59.20207 20431 ft 417 kts 187°
2026-05-06 04:06 24.42730 59.19847 19930 ft 415 kts 186°
2026-05-06 04:06 24.39866 59.19491 19435 ft 410 kts 186°
2026-05-06 04:07 24.37033 59.19140 18951 ft 409 kts 186°
2026-05-06 04:07 24.34219 59.18791 18463 ft 406 kts 186°
2026-05-06 04:07 24.31418 59.18444 17986 ft 404 kts 186°
2026-05-06 04:07 24.28616 59.18096 17498 ft 401 kts 185°
2026-05-06 04:08 24.25850 59.17753 17020 ft 396 kts 185°
2026-05-06 04:08 24.23141 59.17418 16553 ft 394 kts 185°
2026-05-06 04:08 24.20419 59.17082 16082 ft 391 kts 185°
2026-05-06 04:08 24.17723 59.16748 15620 ft 386 kts 185°
2026-05-06 04:09 24.15069 59.16420 15158 ft 382 kts 185°
2026-05-06 04:09 24.12443 59.16096 14695 ft 379 kts 184°
2026-05-06 04:09 24.09822 59.15772 14232 ft 375 kts 184°
2026-05-06 04:09 24.07217 59.15449 13773 ft 374 kts 184°
2026-05-06 04:10 24.04662 59.15135 13323 ft 372 kts 184°
2026-05-06 04:10 24.02072 59.14815 12861 ft 369 kts 184°
2026-05-06 04:10 23.99549 59.14504 12407 ft 366 kts 184°
2026-05-06 04:10 23.97017 59.14106 11980 ft 365 kts 192°
2026-05-06 04:11 23.94654 59.13078 11560 ft 366 kts 209°
2026-05-06 04:11 23.92645 59.11373 11117 ft 366 kts 225°
2026-05-06 04:11 23.91169 59.09169 10690 ft 362 kts 242°
2026-05-06 04:11 23.90171 59.06634 10259 ft 360 kts 248°
2026-05-06 04:12 23.89225 59.04147 10019 ft 347 kts 247°
2026-05-06 04:12 23.88328 59.01757 9992 ft 331 kts 247°
2026-05-06 04:12 23.87474 58.99486 9931 ft 316 kts 248°
2026-05-06 04:12 23.86665 58.97326 9891 ft 306 kts 247°
2026-05-06 04:13 23.85859 58.95177 9586 ft 304 kts 247°
2026-05-06 04:13 23.85063 58.93053 9318 ft 299 kts 247°
2026-05-06 04:13 23.84277 58.90961 9167 ft 297 kts 247°
2026-05-06 04:13 23.83506 58.88904 8939 ft 294 kts 248°
2026-05-06 04:14 23.82732 58.86843 8812 ft 292 kts 248°
2026-05-06 04:14 23.81970 58.84800 8759 ft 292 kts 248°
2026-05-06 04:14 23.81203 58.82735 8585 ft 290 kts 248°
2026-05-06 04:14 23.80440 58.80686 8436 ft 290 kts 248°
2026-05-06 04:15 23.79683 58.78651 8252 ft 290 kts 248°
2026-05-06 04:15 23.78937 58.76648 8113 ft 288 kts 248°
2026-05-06 04:15 23.78183 58.74623 7934 ft 287 kts 248°
2026-05-06 04:15 23.77431 58.72607 7770 ft 285 kts 248°
2026-05-06 04:16 23.76683 58.70602 7611 ft 285 kts 248°
2026-05-06 04:16 23.75936 58.68597 7461 ft 285 kts 248°
2026-05-06 04:16 23.75184 58.66604 7280 ft 283 kts 245°
2026-05-06 04:16 23.74024 58.64883 7191 ft 282 kts 218°
2026-05-06 04:17 23.72318 58.63907 6936 ft 283 kts 193°
2026-05-06 04:17 23.70338 58.63770 6571 ft 282 kts 176°
2026-05-06 04:17 23.68389 58.63893 6189 ft 284 kts 176°
2026-05-06 04:17 23.66394 58.64015 5759 ft 288 kts 180°
2026-05-06 04:18 23.64433 58.63563 5293 ft 291 kts 206°
2026-05-06 04:18 23.62835 58.62206 4875 ft 292 kts 233°
2026-05-06 04:18 23.61948 58.60234 4417 ft 290 kts 259°
2026-05-06 04:18 23.61713 58.58091 4073 ft 276 kts 265°
2026-05-06 04:19 23.61533 58.56063 3677 ft 268 kts 265°
2026-05-06 04:19 23.61362 58.54068 3329 ft 259 kts 265°
2026-05-06 04:19 23.61203 58.52166 3160 ft 245 kts 265°
2026-05-06 04:19 23.61052 58.50351 3031 ft 237 kts 265°
2026-05-06 04:20 23.60917 58.48573 2873 ft 234 kts 265°
2026-05-06 04:20 23.60783 58.46825 2680 ft 227 kts 265°
2026-05-06 04:20 23.60654 58.45185 2540 ft 213 kts 265°
2026-05-06 04:20 23.60531 58.43621 2306 ft 199 kts 265°
2026-05-06 04:21 23.60417 58.42194 2051 ft 183 kts 265°
2026-05-06 04:21 23.60310 58.40850 1802 ft 172 kts 265°
2026-05-06 04:21 23.60209 58.39578 1595 ft 161 kts 265°
2026-05-06 04:21 23.60117 58.38427 1373 ft 146 kts 265°
2026-05-06 04:22 23.60027 58.37312 1200 ft 149 kts 265°
2026-05-06 04:22 23.59937 58.36183 1022 ft 152 kts 265°
2026-05-06 04:22 23.59844 58.35033 828 ft 150 kts 265°
2026-05-06 04:23 23.59662 58.32800 463 ft 147 kts 265°
2026-05-06 04:23 23.59577 58.31701 285 ft 146 kts 265°
2026-05-06 04:23 23.59484 58.30585 121 ft 147 kts 266°
2026-05-06 04:23 23.59396 58.29501 57 ft 138 kts 266°
2026-05-06 04:24 23.59323 58.28599 56 ft 92 kts 265°
2026-05-06 04:24 23.59284 58.28095 56 ft 58 kts 265°
2026-05-06 04:24 23.59250 58.27668 56 ft 50 kts 264°
2026-05-06 04:24 23.59221 58.27330 56 ft 33 kts 265°
2026-05-06 04:25 23.59209 58.27125 56 ft 19 kts 284°
2026-05-06 04:25 23.59268 58.27079 56 ft 2 kts 349°
2026-05-06 04:25 23.59326 58.27071 56 ft 10 kts 354°
2026-05-06 04:25 23.59405 58.27065 56 ft 12 kts 356°
2026-05-06 04:26 23.59502 58.27128 56 ft 22 kts 84°
2026-05-06 04:26 23.59513 58.27311 56 ft 25 kts 84°
2026-05-06 04:26 23.59531 58.27507 56 ft 27 kts 84°
2026-05-06 04:26 23.59548 58.27718 56 ft 29 kts 86°
2026-05-06 04:27 23.59566 58.27947 56 ft 31 kts 85°
2026-05-06 04:27 23.59586 58.28186 56 ft 32 kts 83°
2026-05-06 04:27 23.59607 58.28442 56 ft 34 kts 84°
2026-05-06 04:27 23.59619 58.28596 56 ft 15 kts 86°
2026-05-06 04:28 23.59627 58.28726 56 ft 17 kts 83°
2026-05-06 04:28 23.59641 58.28867 56 ft 20 kts 84°
2026-05-06 04:28 23.59654 58.29028 56 ft 22 kts 84°
2026-05-06 04:28 23.59670 58.29204 56 ft 24 kts 83°
2026-05-06 04:29 23.59682 58.29396 56 ft 26 kts 85°
2026-05-06 04:29 23.59700 58.29606 56 ft 28 kts 84°
2026-05-06 04:29 23.59718 58.29829 56 ft 28 kts 85°
2026-05-06 04:29 23.59730 58.29991 56 ft 16 kts 84°
2026-05-06 04:30 23.59755 58.30063 56 ft 9 kts 25°
2026-05-06 04:30 23.59824 58.30058 56 ft 7 kts 354°
2026-05-06 04:30 23.59847 58.30055 56 ft 0 kts 353°